When you browse on this site, cookies collect data to enhance your experience and personalize the content and advertising you see.
Visit our Privacy Policy to learn more. By continuing to use the site, you agree to this use of cookies and data.
  • In Latvia
  • List of Countries
  • For 7 days
  • Water Temperature
  • Weather Map
  • Weather Widgets
  • user-avatar
    Login

    Hourly Weather Nyon

    Today, 22 September, Sunday

    Time Temperature Precipitation Wind Pressure Humidity
    00:00 +19°C° 0 mm 1 mps 726 mmHg 74%
    01:00 +19°C° 0.1 mm 1 mps 726 mmHg 75%
    02:00 +18°C° 0.1 mm 1 mps 726 mmHg 77%
    03:00 +18°C° 0.1 mm 1 mps 726 mmHg 78%
    04:00 +18°C° 0.1 mm 1 mps 725 mmHg 80%
    05:00 +18°C° 0.1 mm 1 mps 725 mmHg 81%
    06:00 +18°C° 0 mm 1 mps 725 mmHg 83%
    07:00 +20°C° 0 mm 1 mps 725 mmHg 78%
    08:00 +21°C° 0 mm 1 mps 725 mmHg 72%
    09:00 +23°C° 0 mm 1 mps 725 mmHg 66%
    10:00 +24°C° 0.1 mm 1 mps 725 mmHg 64%
    11:00 +25°C° 0.1 mm 1 mps 724 mmHg 62%
    12:00 +26°C° 0 mm 2 mps 724 mmHg 61%
    13:00 +25°C° 0.4 mm 2 mps 724 mmHg 66%
    14:00 +25°C° 0.4 mm 2 mps 724 mmHg 70%
    15:00 +25°C° 0.4 mm 2 mps 723 mmHg 74%
    16:00 +23°C° 1.1 mm 2 mps 724 mmHg 80%
    17:00 +21°C° 1.1 mm 1 mps 724 mmHg 87%
    18:00 +20°C° 1.1 mm 1 mps 724 mmHg 93%
    19:00 +18°C° 4 mm 1 mps 725 mmHg 94%
    20:00 +16°C° 4 mm 2 mps 725 mmHg 96%
    21:00 +14°C° 4 mm 2 mps 725 mmHg 97%
    22:00 +14°C° 4.6 mm 2 mps 726 mmHg 97%
    23:00 +14°C° 4.6 mm 2 mps 727 mmHg 97%

    Tomorrow, 23 September, Monday

    Time Temperature Precipitation Wind Pressure Humidity
    00:00 +14°C° 4.6 mm 2 mps 727 mmHg 97%
    01:00 +14°C° 0.2 mm 1 mps 727 mmHg 96%
    02:00 +14°C° 0.2 mm 1 mps 727 mmHg 95%
    03:00 +14°C° 0.2 mm 1 mps 727 mmHg 94%
    04:00 +14°C° 0 mm 1 mps 727 mmHg 94%
    05:00 +14°C° 0 mm 1 mps 727 mmHg 95%
    06:00 +14°C° 0 mm 1 mps 728 mmHg 95%
    07:00 +15°C° 0.1 mm 1 mps 728 mmHg 90%
    08:00 +16°C° 0.1 mm 1 mps 728 mmHg 86%
    09:00 +18°C° 0.1 mm 1 mps 728 mmHg 82%
    10:00 +19°C° 0.1 mm 1 mps 728 mmHg 76%
    11:00 +20°C° 0.1 mm 1 mps 728 mmHg 71%
    12:00 +21°C° 0.1 mm 1 mps 728 mmHg 65%
    13:00 +21°C° 0 mm 1 mps 728 mmHg 64%
    14:00 +21°C° 0 mm 1 mps 728 mmHg 63%
    15:00 +21°C° 0 mm 1 mps 728 mmHg 62%
    16:00 +19°C° 0 mm 1 mps 728 mmHg 70%
    17:00 +16°C° 0 mm 1 mps 727 mmHg 78%
    18:00 +14°C° 0 mm 1 mps 727 mmHg 87%
    19:00 +13°C° 0 mm 1 mps 728 mmHg 87%
    20:00 +13°C° 0 mm 1 mps 728 mmHg 88%
    21:00 +13°C° 0 mm 1 mps 728 mmHg 89%
    22:00 +13°C° 0 mm 1 mps 728 mmHg 88%
    23:00 +12°C° 0 mm 1 mps 728 mmHg 88%

    Day after tomorrow, 24 September, Tuesday

    Time Temperature Precipitation Wind Pressure Humidity
    00:00 +11°C° 0 mm 0 mps 728 mmHg 87%
    01:00 +11°C° 0 mm 0 mps 727 mmHg 88%
    02:00 +11°C° 0 mm 0 mps 727 mmHg 90%
    03:00 +10°C° 0 mm 0 mps 727 mmHg 91%
    04:00 +11°C° 0 mm 0 mps 727 mmHg 90%
    05:00 +12°C° 0 mm 1 mps 726 mmHg 89%
    06:00 +13°C° 0 mm 1 mps 726 mmHg 89%
    07:00 +14°C° 0 mm 1 mps 726 mmHg 86%
    08:00 +15°C° 0 mm 1 mps 726 mmHg 83%
    09:00 +16°C° 0 mm 1 mps 726 mmHg 80%
    10:00 +16°C° 0 mm 2 mps 725 mmHg 77%
    11:00 +16°C° 0 mm 2 mps 725 mmHg 75%
    12:00 +17°C° 0 mm 2 mps 725 mmHg 72%
    13:00 +17°C° 0.1 mm 2 mps 725 mmHg 74%
    14:00 +17°C° 0.1 mm 3 mps 725 mmHg 76%
    15:00 +17°C° 0.1 mm 3 mps 724 mmHg 78%
    16:00 +16°C° 0.5 mm 2 mps 724 mmHg 82%
    17:00 +16°C° 0.5 mm 2 mps 724 mmHg 86%
    18:00 +15°C° 0.5 mm 2 mps 724 mmHg 90%
    19:00 +14°C° 0.7 mm 3 mps 725 mmHg 92%
    20:00 +16°C° 0.7 mm 3 mps 725 mmHg 94%
    21:00 +15°C° 0.7 mm 4 mps 725 mmHg 95%
    22:00 +14°C° 0.2 mm 3 mps 725 mmHg 95%
    23:00 +14°C° 0.2 mm 3 mps 725 mmHg 95%

    25 September, Wednesday

    Time Temperature Precipitation Wind Pressure Humidity
    00:00 +14°C° 0.2 mm 3 mps 725 mmHg 95%
    01:00 +13°C° 0.2 mm 3 mps 725 mmHg 95%
    02:00 +13°C° 0.2 mm 3 mps 725 mmHg 95%
    03:00 +14°C° 0.2 mm 2 mps 725 mmHg 95%
    04:00 +14°C° 0.2 mm 2 mps 725 mmHg 95%
    05:00 +13°C° 0.2 mm 2 mps 725 mmHg 94%
    06:00 +13°C° 0.2 mm 2 mps 724 mmHg 94%
    07:00 +13°C° 0.1 mm 3 mps 725 mmHg 90%
    08:00 +14°C° 0.1 mm 3 mps 725 mmHg 86%
    09:00 +16°C° 0.1 mm 3 mps 725 mmHg 82%
    10:00 +16°C° 0.2 mm 3 mps 725 mmHg 77%
    11:00 +17°C° 0.2 mm 4 mps 725 mmHg 73%
    12:00 +18°C° 0.2 mm 4 mps 725 mmHg 69%
    13:00 +17°C° 0.2 mm 4 mps 725 mmHg 72%
    14:00 +17°C° 0.2 mm 3 mps 725 mmHg 76%
    15:00 +16°C° 0.2 mm 3 mps 725 mmHg 79%
    16:00 +16°C° 0.1 mm 2 mps 725 mmHg 82%
    17:00 +15°C° 0.1 mm 2 mps 725 mmHg 84%
    18:00 +14°C° 0.1 mm 2 mps 725 mmHg 86%
    19:00 +14°C° 0 mm 2 mps 726 mmHg 87%
    20:00 +13°C° 0 mm 2 mps 726 mmHg 89%
    21:00 +13°C° 0 mm 2 mps 727 mmHg 90%
    22:00 +13°C° 0 mm 2 mps 727 mmHg 89%
    23:00 +13°C° 0 mm 2 mps 727 mmHg 89%

    26 September, Thursday

    Time Temperature Precipitation Wind Pressure Humidity
    00:00 +13°C° 0 mm 2 mps 727 mmHg 89%
    01:00 +13°C° 0.3 mm 2 mps 727 mmHg 90%
    02:00 +14°C° 0.3 mm 2 mps 727 mmHg 91%
    03:00 +14°C° 0.3 mm 2 mps 727 mmHg 91%
    04:00 +14°C° 0.3 mm 2 mps 727 mmHg 92%
    05:00 +14°C° 0.3 mm 2 mps 727 mmHg 92%
    06:00 +14°C° 0.3 mm 1 mps 727 mmHg 92%
    07:00 +15°C° 0.1 mm 1 mps 728 mmHg 89%
    08:00 +16°C° 0.1 mm 1 mps 728 mmHg 86%
    09:00 +18°C° 0.1 mm 1 mps 728 mmHg 83%
    10:00 +20°C° 0 mm 1 mps 728 mmHg 77%
    11:00 +21°C° 0 mm 1 mps 728 mmHg 71%
    12:00 +22°C° 0 mm 1 mps 728 mmHg 65%
    13:00 +22°C° 0 mm 1 mps 728 mmHg 66%
    14:00 +22°C° 0 mm 1 mps 727 mmHg 66%
    15:00 +22°C° 0 mm 1 mps 727 mmHg 67%
    16:00 +21°C° 0 mm 1 mps 727 mmHg 73%
    17:00 +19°C° 0 mm 1 mps 727 mmHg 80%
    18:00 +16°C° 0 mm 0 mps 727 mmHg 87%
    19:00 +18°C° 0 mm 1 mps 728 mmHg 85%
    20:00 +18°C° 0 mm 1 mps 728 mmHg 83%
    21:00 +19°C° 0 mm 1 mps 728 mmHg 81%
    22:00 +18°C° 0 mm 1 mps 728 mmHg 82%
    23:00 +18°C° 0 mm 1 mps 728 mmHg 82%

    27 September, Friday

    Time Temperature Precipitation Wind Pressure Humidity
    00:00 +18°C° 0 mm 1 mps 728 mmHg 83%
    01:00 +18°C° 0 mm 1 mps 728 mmHg 83%
    02:00 +18°C° 0 mm 1 mps 728 mmHg 83%
    03:00 +18°C° 0 mm 1 mps 728 mmHg 83%
    04:00 +18°C° 0 mm 1 mps 727 mmHg 84%
    05:00 +16°C° 0 mm 1 mps 727 mmHg 85%
    06:00 +16°C° 0 mm 1 mps 727 mmHg 86%
    07:00 +18°C° 0 mm 2 mps 727 mmHg 81%
    08:00 +19°C° 0 mm 2 mps 727 mmHg 76%
    09:00 +20°C° 0 mm 3 mps 727 mmHg 70%
    10:00 +21°C° 0.2 mm 3 mps 727 mmHg 68%
    11:00 +22°C° 0.2 mm 4 mps 727 mmHg 66%
    12:00 +23°C° 0.2 mm 4 mps 727 mmHg 64%
    13:00 +22°C° 0.2 mm 4 mps 727 mmHg 65%
    14:00 +22°C° 0.2 mm 3 mps 726 mmHg 66%
    15:00 +22°C° 0.2 mm 3 mps 726 mmHg 67%
    16:00 +20°C° 0.5 mm 2 mps 726 mmHg 76%
    17:00 +18°C° 0.5 mm 2 mps 727 mmHg 85%
    18:00 +18°C° 0.5 mm 1 mps 727 mmHg 93%
    19:00 +16°C° 0.5 mm 1 mps 727 mmHg 93%
    20:00 +16°C° 0.5 mm 2 mps 727 mmHg 94%
    21:00 +16°C° 0.5 mm 2 mps 728 mmHg 94%
    22:00 +16°C° 0.1 mm 2 mps 728 mmHg 94%
    23:00 +15°C° 0.1 mm 2 mps 728 mmHg 93%
    Show more